Loisir ou Compétition : Rejoignez un Club de la Fédération

Résultats

CHALLENGE CASA ARNAUD 30 MARS 2019

AUTRANS

PT Dames

Jury de Compétition

Délégué Technique :
GALLIN LIONEL (DA)
D.T. Adjoint :
VALLET JEAN LUC (DA)
Dir. Epreuve :
HELDENBERGH NICOLAS (DA)

Caractéristiques de la Piste

Piste :
AUTRANS VILLAGE SITE COMPETITI
Distance :
2.7 km
Point Haut :
 
Point Bas :
 
Montée Tot. :
 
Montée Max. :
 
Homologation :
2016-62-1

Pénalité Appliquée :
 
Coefficient :
 

Catégorie :
U13
Style :
L

30/03/19 - FDAF0073

CltDosClt/CatCodeAnNom PrénomComClubTempsEcartPoints
11411/U13FFS26814922006DUSSERRE ALICEDACS VILLARD08:52.800:00.0
21422/U13FFS26761572006DONET FLOREDASA MEAUDRAIS09:08.100:15.3
31473/U13FFS26863342006PIC CALINEDASNB CHAMROUS09:10.000:17.2
41454/U13FFS26760722006BREYTON BOUVIER LIVDASN CHARTROUS09:27.700:34.9
51435/U13FFS26922902006VASSAL LILIDACS VILLARD09:34.400:41.6
61576/U13FFS26747682006GLEYZOLLE THAISDAUS AUTRANNAI09:38.400:45.6
71517/U13FFS26812652006BOEUF MAEDASNB CHAMROUS09:50.600:57.8
81538/U13FFS26736342006FOURCY GIRAUD AUBAINEDACO 7 LAUX GR09:53.001:00.2
91589/U13FFS26862482007DOSTATNI VICTORIADASA MEAUDRAIS09:55.401:02.6
1015910/U13FFS26694562006FILLIARD SWANIDACO 7 LAUX GR09:56.801:04.0
1115511/U13FFS26815952006GATIE SELENEDASN CHARTROUS09:59.301:06.5
1214412/U13FFS26755312006CHAMPAGNAC FANTINEDASA MEAUDRAIS10:02.001:09.2
1314613/U13FFS26844092006MORETTI LENADACS VILLARD10:04.401:11.6
1414914/U13FFS26755322006VITTOZ LOUNADASA MEAUDRAIS10:05.301:12.5
1517315/U13FFS26913882007HUET BRIOT MAELYNEDASN CHARTROUS10:30.201:37.4
1614816/U13FFS26744822006PORRET LINADAUS AUTRANNAI10:35.201:42.4
1716117/U13FFS26868682006BONZI ANTONELLADAUS AUTRANNAI10:35.601:42.8
1816518/U13FFS26814462007COPPEL JUSTINEDAGUC GRENOBLE10:39.801:47.0
1918319/U13FFS26899152007BOULEGUE ZOEDASN CHARTROUS10:42.601:49.8
2016320/U13FFS26812962007ZELSMANN FLOREDASNB CHAMROUS10:46.501:53.7
2117121/U13FFS26871212006ROBIN MANONDAUS AUTRANNAI10:49.801:57.0
2215422/U13FFS26877262006BRUEL MANONDACS VILLARD10:53.302:00.5
2317023/U13FFS26776902006BOURGAULT ELINEDAUS AUTRANNAI10:57.402:04.6
2416724/U13FFS26971242006MARGUERON RAPHAELLEDAGUC GRENOBLE10:57.802:05.0
2516225/U13FFS26762802006EYSSAUTIER CYLIADASNB CHAMROUS10:59.702:06.9
2615626/U13FFS26823582006BARDINET FANTINEDASNO11:00.002:07.2
2716627/U13FFS26914072006MIEHE NAWELDASNB CHAMROUS11:00.602:07.8
2816028/U13FFS26778772006FAVARIN TIZIANADASA MEAUDRAIS11:03.702:10.9
2917729/U13FFS26920352006DUPONT LOUISEDAGUC GRENOBLE11:04.602:11.8
3017230/U13FFS26876962007DERUELLE ALICEDACS VILLARD11:09.202:16.4
3117531/U13FFS26915842007MOSNIER ERELLDAGUC GRENOBLE11:10.102:17.3
3216832/U13FFS26762882006COSTE HANNA LIVDAUS AUTRANNAI11:12.802:20.0
3317833/U13FFS27003882006BREYSSE ISALINEDAADDSN ARDECH11:16.102:23.3
3418134/U13FFS26930552006MINELLI BARON CAPUCINEDAUS AUTRANNAI11:24.502:31.7
3516435/U13FFS26777982006COMBEAU ROMANEDASNO11:25.802:33.0
3617936/U13FFS26917142007MAUPOIX JULIETTEDACO 7 LAUX GR11:26.202:33.4
3717437/U13FFS26966002006SARRET VIOLETTEDABOURG VAL SM11:32.502:39.7
3816938/U13FFS26868602007JALLIFIER LISADAVERCORS SKF11:37.502:44.7
3917639/U13FFS26868152007LABBE LULLYDAGUC GRENOBLE11:48.002:55.2
Non partants
150FFS26772002006HASENFRATZ AMELIEDACO 7 LAUX GR
152FFS26778762006AZAMBRE MATHILDEDAUS AUTRANNAI
180FFS26978612006DUSSERT ALIXDASM AIGUILLE
182FFS26873582007BARRET MATHILDEDASN CHARTROUS